Flight Track Log - Related Links

Times and Time Zones

All times are in EDT time to prevent confusion due to time zone crossing. See the N3024M flight status page for this flight to view local times or setup timezone preferences in your user account.

Time Position Orientation Groundspeed Altitude Reporting Facility
EDT Latitude Longitude Course Direction KTS MPH feet Rate Location/Type
01:57PM 27.9000 -82.6833 221° Southwest 81 93 400  Level Tampa TRACON
01:59PM 27.8833 -82.7000 221° Southwest 81 93 1,200 636 Climbing Tampa TRACON
01:59PM 27.8500 -82.7000 180° South 84 97 1,800 600 Climbing Tampa TRACON
02:01PM 27.8333 -82.7000 180° South 75 86 2,400 496 Climbing Tampa TRACON
02:01PM 27.8167 -82.7000 180° South 81 93 2,800 347 Climbing Tampa TRACON
02:03PM 27.7833 -82.7000 180° South 97 112 3,100 143 Climbing Tampa TRACON
02:04PM 27.7667 -82.6833 138° Southeast 101 116 3,100  Level Tampa TRACON
02:05PM 27.7333 -82.6833 180° South 98 113 3,100 -50 Level Tampa TRACON
02:06PM 27.7167 -82.7000 222° Southwest 95 109 3,000  Descending Tampa TRACON
02:07PM 27.6833 -82.7000 180° South 94 108 3,100 50 Climbing Tampa TRACON
02:08PM 27.6667 -82.7000 180° South 98 113 3,100 -200 Level Tampa TRACON
02:09PM 27.6333 -82.7000 180° South 93 107 2,700 -412 Descending Tampa TRACON
02:09PM 27.6175 -82.7003 181° South 96 110 2,400 -462 Descending Miami Center
02:10PM 27.5936 -82.7033 186° South 93 107 1,900 -145 Descending Miami Center
02:11PM 27.5694 -82.7086 191° South 92 106 2,100 144 Climbing Miami Center
02:12PM 27.5464 -82.7186 201° Southwest 92 106 2,200  Climbing Miami Center
02:13PM 27.5278 -82.6997 138° Southeast 101 116 2,100 -48 Descending Miami Center
02:14PM 27.5056 -82.6714 131° Southeast 101 116 2,100 -48 Level Miami Center
02:16PM 27.4864 -82.6489 134° Southeast 101 116 2,000 -192 Descending Miami Center
02:17PM 27.4614 -82.6319 149° Southeast 101 116 1,700 -407 Descending Miami Center
02:17PM 27.4500 -82.6167 130° Southeast 90 104 1,200 -491 Descending Tampa TRACON
02:18PM 27.4333 -82.6000 138° Southeast 88 101 800 -446 Descending Tampa TRACON
02:20PM 27.4167 -82.5667 119° Southeast 93 107 300 -48 Descending Tampa TRACON
02:20PM 27.4000 -82.5500 138° Southeast 103 119 700 550 Climbing Tampa TRACON
02:22PM 27.4000 -82.5167 90° East 111 128 1,400 626 Climbing Tampa TRACON
02:22PM 27.4167 -82.5000 42° Northeast 98 113 1,900 600 Climbing Tampa TRACON
02:24PM 27.4333 -82.5167 318° Northwest 87 100 2,600 545 Climbing Tampa TRACON
02:25PM 27.4667 -82.5333 336° Northwest 93 107 3,100 286 Climbing Tampa TRACON
02:26PM 27.4833 -82.5500 318° Northwest 102 117 3,200  Climbing Tampa TRACON
02:27PM 27.5000 -82.5667 318° Northwest 105 121 3,100 -53 Descending Tampa TRACON
02:28PM 27.5333 -82.5833 336° Northwest 102 117 3,100 -56 Level Tampa TRACON
02:28PM 27.5500 -82.6000 318° Northwest 99 114 3,000  Descending Tampa TRACON
02:29PM 27.5667 -82.6333 299° West 94 108 3,100 61 Climbing Tampa TRACON
02:30PM 27.5725 -82.6356 341° North 99 114 3,100  Level Miami Center
02:31PM 27.5983 -82.6586 322° Northwest 99 114 3,100  Level Miami Center
02:32PM 27.6206 -82.6800 320° Northwest 99 114 3,100  Level Miami Center
02:33PM 27.6397 -82.7019 315° West 99 114 3,100 -48 Level Miami Center
02:34PM 27.6625 -82.7194 326° Northwest 99 114 3,000 -48 Descending Miami Center
02:35PM 27.6878 -82.7356 331° Northwest 99 114 3,000 48 Level Miami Center
02:36PM 27.7131 -82.7511 331° Northwest 99 114 3,100 48 Climbing Miami Center
02:37PM 27.7500 -82.7667 340° North 108 124 3,100 -49 Level Tampa TRACON
02:38PM 27.7833 -82.7833 336° Northwest 108 124 3,000  Descending Tampa TRACON
02:39PM 27.8000 -82.7833 360° North 105 121 3,100 48 Climbing Tampa TRACON
02:40PM 27.8333 -82.8000 336° Northwest 108 124 3,100  Level Tampa TRACON
02:41PM 27.8667 -82.8000 360° North 111 128 3,100  Level Tampa TRACON
02:42PM 27.8833 -82.8000 360° North 113 130 3,100  Level Tampa TRACON
02:43PM 27.9167 -82.8000 360° North 113 130 3,100 -50 Level Tampa TRACON
02:44PM 27.9500 -82.8000 360° North 113 130 3,000 -45 Descending Tampa TRACON
02:45PM 27.9833 -82.8000 360° North 110 127 3,000 50 Level Tampa TRACON
02:46PM 28.0167 -82.8000 360° North 112 129 3,100  Climbing Tampa TRACON
02:47PM 28.0500 -82.8000 360° North 112 129 3,000 -95 Descending Tampa TRACON
02:48PM 28.0833 -82.7833 24° Northeast 107 123 2,900 -300 Descending Tampa TRACON
02:49PM 28.0833 -82.7500 90° East 107 123 2,400 -550 Descending Tampa TRACON
02:50PM 28.0833 -82.7333 90° East 102 117 1,800 -550 Descending Tampa TRACON
02:51PM 28.0500 -82.7167 156° South 101 116 1,300 -53 Descending Tampa TRACON
02:52PM 28.0333 -82.7000 139° Southeast 85 98 1,700 150 Climbing Tampa TRACON
02:53PM 28.0000 -82.7000 180° South 100 115 1,600 -333 Descending Tampa TRACON
02:54PM 27.9667 -82.7000 180° South 97 112 1,000 -450 Descending Tampa TRACON
02:55PM 27.9500 -82.7000 180° South 80 92 700 -100 Descending Tampa TRACON
02:56PM 27.9333 -82.7000 180° South 96 110 800 400 Climbing Tampa TRACON
02:57PM 27.9333 -82.7333 270° West 91 105 1,500 650 Climbing Tampa TRACON
02:58PM 27.9333 -82.7500 270° West 93 107 2,100 30 Climbing Tampa TRACON
03:07PM 28.0333 -82.7333 319° Northwest 107 123 1,800 -30 Descending Tampa TRACON
03:08PM 28.0167 -82.7000 120° Southeast 101 116 1,800 -100 Level Tampa TRACON
03:09PM 28.0000 -82.7000 180° South 94 108 1,600 -350 Descending Tampa TRACON
03:10PM 27.9667 -82.7000 180° South 88 101 1,100 -500 Descending Tampa TRACON
03:11PM 27.9500 -82.7000 180° South 88 101 600 -316 Descending Tampa TRACON
03:12PM 27.9333 -82.6833 139° Southeast 95 109 500 200 Descending Tampa TRACON
03:13PM 27.9167 -82.7167 241° Southwest 96 110 1,000 571 Climbing Tampa TRACON
03:14PM 27.9167 -82.7333 270° West 87 100 1,700 571 Climbing Tampa TRACON
03:16PM 27.9167 -82.7667 270° West 92 106 2,200 524 Climbing Tampa TRACON
03:17PM 27.9500 -82.7667 360° North 103 119 2,800 474 Climbing Tampa TRACON
03:17PM 27.9667 -82.7667 360° North 103 119 3,100 158 Climbing Tampa TRACON
03:18PM 28.0000 -82.7667 360° North 105 121 3,100 -100 Level Tampa TRACON
03:19PM 28.0333 -82.7667 360° North 108 124 2,900 -250 Descending Tampa TRACON
03:20PM 28.0667 -82.7667 360° North 106 122 2,600 -263 Descending Tampa TRACON
03:21PM 28.0833 -82.7500 41° Northeast 109 125 2,400 -368 Descending Tampa TRACON
03:22PM 28.0833 -82.7167 90° East 104 120 1,900 -381 Descending Tampa TRACON
03:23PM 28.0500 -82.7167 180° South 96 110 1,600 -143 Descending Tampa TRACON
03:24PM 28.0167 -82.7167 180° South 97 112 1,600 -99 Level Tampa TRACON
03:25PM 28.0000 -82.7000 139° Southeast 92 106 1,400 -313 Descending Tampa TRACON
03:26PM 27.9667 -82.7000 180° South 86 99 1,000 -474 Descending Tampa TRACON
03:27PM 27.9500 -82.7000 180° South 88 101 500 -238 Descending Tampa TRACON
03:28PM 27.9167 -82.6833 156° South 82 94 500 286 Level Tampa TRACON
03:29PM 27.9167 -82.7167 270° West 85 98 1,100 619 Climbing Tampa TRACON
03:31PM 27.9167 -82.7333 270° West 84 97 1,800 619 Climbing Tampa TRACON
03:32PM 27.9500 -82.7500 336° Northwest 105 121 2,400 600 Climbing Tampa TRACON
03:33PM 27.9667 -82.7500 360° North 97 112 3,000 368 Climbing Tampa TRACON
03:33PM 28.0000 -82.7500 360° North 99 114 3,100 48 Climbing Tampa TRACON
03:35PM 28.0333 -82.7667 336° Northwest 105 121 3,100 -45 Level Tampa TRACON
03:36PM 28.0500 -82.7667 360° North 106 122 3,000 -263 Descending Tampa TRACON
03:37PM 28.0833 -82.7500 24° Northeast 101 116 2,600 -476 Descending Tampa TRACON
03:38PM 28.0833 -82.7333 90° East 109 125 2,000 -474 Descending Tampa TRACON
03:38PM 28.0667 -82.7167 139° Southeast 96 110 1,700 -211 Descending Tampa TRACON
03:40PM 28.0333 -82.7000 156° South 101 116 1,600 -50 Descending Tampa TRACON
03:40PM 28.0167 -82.7000 180° South 92 106 1,600 -150 Level Tampa TRACON
03:42PM 27.9833 -82.7000 180° South 93 107 1,300 -364 Descending Tampa TRACON
03:43PM 27.9667 -82.7000 180° South 99 114 800 -368 Descending Tampa TRACON
03:44PM 27.9333 -82.7000 180° South 83 96 600 -157 Descending Tampa TRACON
03:45PM 27.9167 -82.6833 139° Southeast 82 94 500 -98 Descending Tampa TRACON

Login

Don't have an account? Register now (free) for customized features, flight alerts, and more!